Location: Unspecified
(0.0000°N, 0.0000°E)
Time: 03:36:37
(UTC+00:00)

Vanguard 1 - Pass Details

Date: 14 December 2023
Orbit: 653 x 3826 km, 34.3° (Epoch: 22 February)

Event Time Altitude Azimuth Distance (km) Brightness Sun altitude
Rises 12:48:37 0° 255° (WSW) 3,073 12.9 63.3°
Reaches altitude 10° 12:50:50 10° 266° (W) 2,287 12.3 63.1°
Maximum altitude 12:55:33 35° 332° (NNW) 1,514 11.3 62.5°
Drops below altitude 10° 13:02:44 10° 35° (NE) 3,512 12.7 61.5°
Sets 13:07:03 0° 43° (NE) 5,021 13.4 60.9°
